Regional Weather Roundup
Issued by NWS Memphis, TN

Home | Current Version | Previous Version | Text Only | Print | Product List | Glossary On
Versions: 1 2 3 4 5 6 7 8 9 10 11 12 13 14 15 16 17 18 19 20 21 22 23 24 25 26 27 28 29 30 31 32 33 34 35 36 37 38 39 40 41 42 43 44 45 46 47 48 49 50
000
ASUS44 KMEG 131110
RWRMEG
MEMPHIS CWA HOURLY WEATHER ROUNDUP
NATIONAL WEATHER SERVICE MEMPHIS TN
600 AM CDT SUN JUN 13 2021

...WEST TENNESSEE...

CITY           SKY/WX    TMP DP  RH WIND       PRES   REMARKS
MEMPHIS INTL   PTCLDY    78  75  90 W5        29.90R
NWS MEMPHIS      N/A     75 N/A N/A MISG        N/A
JACKSON        MOCLDY    75  73  93 W3        29.89S
COVINGTON        N/A     75  73  94 CALM      29.89R
SOMERVILLE     CLEAR     75  73  94 CALM      29.89R FOG
BOLIVAR        CLEAR     73  73 100 CALM      29.88S FOG
LEXINGTON      CLEAR     72  72 100 CALM      29.87R FOG
SELMER         CLEAR     72  70  94 CALM      29.88F
DYERSBURG        N/A     75  75 100 CALM      29.90R
UNION CITY     PTCLDY    75  75 100 CALM      29.87R FOG
PARIS          CLEAR     72  72 100 CALM      29.87S FOG
HUNTINGDON     CLEAR     73  73 100 CALM      29.87S FOG


...EASTERN ARKANSAS...

CITY           SKY/WX    TMP DP  RH WIND       PRES   REMARKS
JONESBORO      CLEAR     79  74  84 N8        29.90R
WEST MEMPHIS   CLEAR     78  75  90 CALM      29.88R
BATESVILLE     PTCLDY    75  74  96 W3        29.95R
NEWPORT        CLEAR     76  74  93 NW3       29.92R
WALNUT RIDGE   CLEAR     76  73  91 N3        29.91R
BLYTHEVILLE    CLEAR     75  72  90 NW5       29.89R
SEARCY         CLEAR     78  77  96 NW6       29.92R
STUTTGART      CLEAR    N/A N/A N/A NW5       29.91R
PINE BLUFF     CLEAR     80  74  81 NW7       29.90R
MONTICELLO     CLEAR     77  76  96 W3        29.91R


...NORTH MISSISSIPPI...

CITY           SKY/WX    TMP DP  RH WIND       PRES   REMARKS
TUPELO         CLEAR     77  74  90 CALM      29.88R
OXFORD         CLEAR     72  72 100 CALM      29.91
BATESVILLE     MOCLDY    73  72  94 CALM      29.89R
OLIVE BRANCH   CLEAR     77  77 100 CALM      29.90R
TUNICA           N/A     75  75 100 NW3       29.90R
CLARKSDALE     CLEAR     77  77 100 CALM      29.89R
CORINTH        CLEAR     73  73 100 CALM      29.88F
GREENWOOD      FOG       74  72  93 CALM      29.89R VSB 1/4
COLUMBUS       CLEAR     71  71  98 CALM      29.86S
STARKVILLE     CLEAR     72  72 100 CALM      29.88S FOG
GOLDEN TRIANGL CLEAR     72  72 100 CALM      29.88S FOG


...SOUTHEAST MISSOURI...

CITY           SKY/WX    TMP DP  RH WIND       PRES   REMARKS
KENNETT        CLEAR     79  77  94 N7        29.89R
MALDEN         CLEAR     77  72  83 NW6       29.92R
WEST PLAINS    CLOUDY    73  64  73 N6        30.01R
POPLAR BLUFF   CLEAR     75  70  84 N7        29.91R
CAPE GIRARDEAU CLEAR     76  69  79 NW6       29.89R


...NORTHWEST ALABAMA...

CITY           SKY/WX    TMP DP  RH WIND       PRES   REMARKS
MUSCLE SHOALS  CLEAR     72  68  87 CALM      29.90R FOG


...MIDDLE TENNESSEE...

CITY           SKY/WX    TMP DP  RH WIND       PRES   REMARKS
NASHVILLE      PTCLDY    74  70  87 CALM      29.90R
CLARKSVILLE    PTCLDY    70  67  90 NE8       29.91R
DICKSON        CLEAR     70  70 100 CALM      29.90R FOG
COLUMBIA       CLEAR     68  68 100 S5        29.88R FOG
LAWRENCEBURG   CLEAR     68  68 100 CALM      29.91R FOG
LEWISBURG      CLEAR     66  66 100 CALM      29.90R FOG


...WESTERN KENTUCKY...

CITY           SKY/WX    TMP DP  RH WIND       PRES   REMARKS
PADUCAH        CLEAR     73  70  90 W3        29.86S FOG
FORT CAMPBELL  PTCLDY    71  70  99 NE8G17    29.91R


...CENTRAL ARKANSAS...

CITY           SKY/WX    TMP DP  RH WIND       PRES   REMARKS
LITTLE ROCK    PTCLDY    80  75  84 NW6       29.91R


SKY/WX REPORTED AS FAIR MEANS FEW OR NO CLOUDS BELOW
12 THOUSAND FEET.




USA.gov is the U.S. government's official web portal to all federal, state and local government web resources and services.